Location: La Comballaz
(46.3780°N, 7.0817°E)
Time: 05:11:31
(UTC+00:00)

Envisat - Pass Details

Date: 09 December 2021
Orbit: 764 x 766 km, 98.2° (Epoch: 16 January)

Event Time Altitude Azimuth Distance (km) Brightness Sun altitude
Rises 05:44:36 0° 3° (N) 3,244 6.1 -12.9°
Reaches altitude 10° 05:47:13 10° 352° (N) 2,313 5.2 -12.5°
Maximum altitude 05:51:24 27° 297° (WNW) 1,461 3.9 -11.8°
Drops below altitude 10° 05:55:34 10° 241° (WSW) 2,299 5.1 -11.2°
Sets 05:58:10 0° 229° (SW) 3,221 6.0 -10.8°
